PST,Max TemperatureF,Mean TemperatureF,Min TemperatureF,Max Dew PointF,MeanDew PointF,Min DewpointF,Max Humidity, Mean Humidity, Min Humidity, Max Sea Level PressureIn, Mean Sea Level PressureIn, Min Sea Level PressureIn, Max VisibilityMiles, Mean VisibilityMiles, Min VisibilityMiles, Max Wind SpeedMPH, Mean Wind SpeedMPH, Max Gust SpeedMPH,PrecipitationIn, CloudCover, Events, WindDirDegrees
2012-11-1,59,55,50,55,52,50,100,90,80,30.03,29.85,29.71,10,6,1,14,4,17,0.67,8,Rain,199
2012-11-2,58,52,45,54,49,45,100,90,80,30.04,30.01,29.97,10,3,0,6,0,7,0.34,7,Fog-Rain,174
2012-11-3,60,56,52,56,54,52,93,86,78,30.18,30.07,29.97,10,8,4,16,5,22,0.03,8,Rain,210
2012-11-4,64,59,53,61,56,54,100,92,84,30.27,30.22,30.17,10,5,1,20,7,25,0.19,8,Rain,207
2012-11-5,60,51,42,55,46,41,100,77,53,30.39,30.30,30.17,10,7,0,14,4,17,T,2,Fog,53
2012-11-6,56,47,37,53,44,39,100,93,86,30.15,30.06,29.99,10,4,0,12,5,17,0.01,6,Fog-Rain,222
2012-11-7,54,45,35,46,39,34,100,80,59,30.16,30.06,29.95,10,6,0,12,5,15,0.02,3,Fog-Rain,215
2012-11-8,50,39,28,40,33,27,100,78,56,29.94,29.86,29.81,10,4,0,14,3,18,0.00,4,Fog,54
2012-11-9,49,37,25,37,28,23,100,77,53,29.97,29.90,29.86,10,4,0,8,1,10,0.00,2,Fog,110
2012-11-10,46,33,20,34,25,19,100,73,45,30.23,30.05,29.96,10,4,0,7,1,9,0.00,2,Fog,128
2012-11-11,47,37,27,44,37,26,100,93,86,30.25,30.17,30.06,10,5,3,22,5,29,0.76,8,Rain,195
2012-11-12,53,50,47,49,46,44,100,92,83,30.22,30.14,30.06,10,8,4,22,7,28,0.18,8,Rain,203
2012-11-13,52,49,45,49,47,45,100,95,89,30.22,30.18,30.14,10,6,0,9,3,13,0.16,8,Fog-Rain,217
2012-11-14,52,43,34,48,42,34,100,89,77,30.31,30.28,30.19,10,5,0,10,3,13,0.00,5,Fog,220
2012-11-15,46,41,35,43,40,36,100,92,83,30.26,30.09,29.96,10,4,0,10,3,13,0.00,8,Fog,67
2012-11-16,47,43,38,45,40,37,100,95,89,29.95,29.87,29.70,8,3,0,8,2,10,0.21,8,Fog-Rain,207
2012-11-17,51,47,42,47,43,39,100,93,86,29.72,29.62,29.50,10,7,2,22,7,28,0.40,8,Rain,194
2012-11-18,49,46,43,46,43,40,93,87,80,29.75,29.65,29.51,10,9,4,25,16,39,0.64,8,Rain,182
2012-11-19,54,50,45,52,49,45,96,91,86,29.69,29.51,29.35,10,5,2,36,14,54,2.29,7,Rain,189
2012-11-20,52,46,39,48,43,39,100,87,74,29.69,29.64,29.54,10,6,0,28,7,39,0.22,5,Fog-Rain,191
2012-11-21,46,40,34,43,40,35,100,93,86,30.31,29.88,29.53,10,8,1,26,10,36,0.54,6,Rain,205
2012-11-22,45,38,30,41,36,30,100,92,83,30.37,30.32,30.23,10,6,1,7,1,8,0.07,4,Rain,152
2012-11-23,50,46,41,47,45,40,96,90,83,30.22,30.10,30.04,10,7,2,26,10,35,0.71,8,Rain,209
2012-11-24,47,41,35,45,41,36,100,93,86,30.28,30.24,30.17,10,4,0,8,1,10,0.00,6,Fog,190
2012-11-25,46,41,36,41,38,35,100,88,76,30.34,30.29,30.21,10,5,0,13,3,18,0.00,6,Fog,26
2012-11-26,47,39,30,37,33,28,100,86,71,30.21,30.12,30.05,10,3,0,7,1,9,0.00,4,Fog,62
2012-11-27,47,38,28,39,33,28,100,83,65,30.10,29.99,29.90,10,4,0,7,1,7,0.00,3,Fog,152
2012-11-28,43,38,32,42,38,33,100,96,92,29.89,29.72,29.61,7,2,0,8,1,9,0.06,6,Fog-Rain,55
2012-11-29,54,45,35,47,42,36,100,86,71,29.70,29.58,29.45,10,6,0,21,6,28,0.21,7,Fog-Rain,190
2012-11-30,55,49,43,50,47,43,100,92,83,29.45,29.41,29.38,10,6,1,26,9,37,1.44,7,Rain,194